"America/Chicago Time","Lifetime Energy (kWh)","Power (W)","AC Volts RMS (V) ","AC Amps RMS (mA)","Grid Frequency (Hz)","Inverter Temperature (C)"
"04/09/12 12:26:31","56.1956","84.2","215.71","413","60.03","12"
"04/09/12 12:31:32","56.2043","62.1","214.65","421","60.0","12"
"04/09/12 12:36:31","56.2089","44.3","214.08","386","60.0","11"
"04/09/12 12:41:31","56.2131","56.7","215.25","391","60.0","11"
"04/09/12 12:46:32","56.2172","65.1","215.05","401","60.03","10"
"04/09/12 12:51:33","56.2222","61.5","215.5","313","60.03","10"
"04/09/12 12:56:32","56.2259","60.3","215.78","345","60.03","9"
"04/09/12 13:01:31","56.2305","65.7","215.81","329","60.0","9"
"04/09/12 13:06:32","56.2356","64.5","215.23","329","60.0","10"
"04/09/12 13:11:32","56.2398","45.1","214.65","286","60.0","9"
"04/09/12 13:16:31","56.2433","54.3","214.17","114","60.03","9"
"04/09/12 13:21:31","56.2489","72.8","214.53","362","60.0","9"
"04/09/12 13:26:31","56.2541","47.0","214.32","338","60.03","9"
"04/09/12 13:31:31","56.2572","42.8","214.99","342","60.03","9"
"04/09/12 13:36:32","56.261","56.4","214.94","378","60.0","9"
"04/09/12 13:41:32","56.2648","43.1","215.07","321","60.0","9"
"04/09/12 13:46:33","56.2678","53.4","214.05","183","60.0","9"
"04/09/12 13:51:31","56.2713","36.4","214.55","68","60.03","9"
"04/09/12 13:56:31","56.2738","25.9","215.2","61","60.03","9"
"04/09/12 14:01:31","56.2753","19.7","214.87","215","60.0","9"
"04/09/12 14:06:32","56.2768","11.8","213.84","6","60.03","8"
"04/09/12 14:11:32","56.2781","15.3","214.12","56","60.03","8"
"04/09/12 14:16:31","56.279","15.7","214.23","7","60.03","7"
"04/09/12 14:21:32","56.2799","12.9","214.76","107","60.0","7"
"04/09/12 14:26:32","56.2807","11.0","214.1","4","59.96","7"
"04/09/12 14:31:33","56.2814","21.7","215.08","255","60.03","7"
"04/09/12 14:36:31","56.2835","30.2","215.31","84","60.03","7"
"04/09/12 14:41:32","56.2859","30.6","214.93","99","60.0","7"
"04/09/12 14:46:32","56.2884","35.1","214.22","179","60.03","7"
"04/09/12 14:51:31","56.2917","63.2","215.69","324","60.0","7"
"04/09/12 14:56:32","56.2985","129.3","217.31","598","60.03","8"
"04/09/12 15:01:32","56.306","73.1","216.33","367","60.03","8"
"04/09/12 15:06:32","56.3127","81.2","216.34","398","60.03","9"
"04/09/12 15:11:32","56.3189","64.9","215.82","351","60.03","9"
"04/09/12 15:16:33","56.3247","69.2","216.25","343","60.0","9"
"04/09/12 15:21:32","56.3319","181.7","218.02","825","60.03","9"
"04/09/12 15:26:32","56.3382","48.8","215.0","166","59.96","9"
"04/09/12 15:31:33","56.3419","79.6","216.27","393","60.07","9"
"04/09/12 15:36:31","56.3482","64.2","215.45","322","60.03","9"
"04/09/12 15:41:31","56.3523","44.0","215.03","316","60.0","8"
"04/09/12 15:46:31","56.3548","30.3","214.98","185","60.03","8"
"04/09/12 15:51:31","56.3572","38.7","214.46","203","60.03","8"
"04/09/12 15:56:31","56.3599","32.7","214.56","92","60.0","8"
"04/09/12 16:01:32","56.3617","25.9","214.54","215","60.03","7"
"04/09/12 16:06:32","56.3638","31.2","214.4","47","60.03","7"
"04/09/12 16:11:32","56.3668","44.2","214.96","410","60.0","7"
"04/09/12 16:16:31","56.3697","16.4","214.66","273","60.03","7"
"04/09/12 16:21:32","56.3706","11.2","213.41","0","60.03","7"
"04/09/12 16:26:31","56.3727","37.3","214.06","104","60.0","6"
"04/09/12 16:31:32","56.3759","42.5","214.23","101","60.03","6"
"04/09/12 16:36:32","56.3784","32.2","214.46","222","60.03","6"
"04/09/12 16:41:32","56.3811","28.6","213.78","69","60.0","6"
"04/09/12 16:46:31","56.3835","23.2","214.41","263","60.03","6"
"04/09/12 16:51:32","56.3857","26.0","214.16","104","60.03","6"
"04/09/12 16:56:32","56.388","41.3","215.07","252","60.03","6"
"04/09/12 17:01:32","56.3913","46.9","215.62","229","60.07","7"
"04/09/12 17:06:31","56.3949","35.3","215.36","104","60.03","7"
"04/09/12 17:11:31","56.3977","33.3","214.94","127","60.03","7"
"04/09/12 17:16:32","56.4003","38.9","214.34","237","60.03","7"
"04/09/12 17:21:32","56.4027","25.9","214.46","66","60.03","7"
"04/09/12 17:26:31","56.4047","30.8","214.23","19","60.03","8"
"04/09/12 17:31:32","56.4067","31.8","214.14","59","60.0","8"
"04/09/12 17:36:32","56.4085","30.3","214.02","266","60.03","8"
"04/09/12 17:41:32","56.41","27.2","213.91","201","60.03","7"
"04/09/12 17:46:32","56.4113","16.8","213.42","255","60.03","7"
"04/09/12 17:51:31","56.4125","15.2","212.72","5","60.03","7"
"04/09/12 17:56:31","56.4135","2.3","213.44","156","60.03","7"
"04/09/12 18:01:31","56.414","15.1","213.66","93","60.0","7"
"04/09/12 18:06:31","56.4146","13.7","214.27","12","60.07","7"
"04/09/12 18:11:31","56.4155","1.9","213.11","243","60.0","6"
"04/09/12 18:16:33","56.4162","6.5","213.94","184","60.03","6"
"04/09/12 18:21:32","56.4165","0.0","213.59","0","60.03","6"
"04/09/12 18:26:31","56.417","0.0","212.81","0","60.03","6"
"04/10/12 06:46:35","56.417","0.0","213.56","0","60.03","2"
"04/10/12 06:51:33","56.4173","14.6","213.78","127","60.03","3"
"04/10/12 06:56:32","56.418","0.0","213.51","223","60.03","3"
"04/10/12 07:01:34","56.4188","8.7","212.72","222","60.0","4"
"04/10/12 07:06:31","56.4199","16.3","213.33","78","60.0","4"
"04/10/12 07:11:31","56.4213","16.4","213.05","18","60.0","4"
"04/10/12 07:16:33","56.423","32.1","213.84","61","60.0","5"
"04/10/12 07:21:32","56.425","28.7","213.13","191","60.03","5"
"04/10/12 07:26:31","56.4274","37.3","213.86","92","60.0","5"
"04/10/12 07:31:32","56.4301","32.9","212.45","254","60.0","5"
"04/10/12 07:36:32","56.4333","47.8","213.28","370","60.03","6"
"04/10/12 07:41:33","56.4368","40.3","212.8","315","60.0","6"
"04/10/12 07:46:31","56.4407","54.2","214.06","175","60.07","6"
"04/10/12 07:51:32","56.4449","55.1","214.67","153","60.0","6"
"04/10/12 07:56:32","56.4496","62.9","213.88","324","60.03","6"
"04/10/12 08:01:32","56.4547","67.4","214.37","342","60.03","6"
"04/10/12 08:06:33","56.4601","72.3","214.53","361","60.03","6"
"04/10/12 08:11:32","56.4659","78.6","214.27","386","60.03","6"
"04/10/12 08:16:33","56.4722","83.4","214.23","410","60.03","7"
"04/10/12 08:21:33","56.4789","87.9","215.09","432","60.07","7"
"04/10/12 08:26:31","56.4859","93.4","214.78","453","60.03","7"
"04/10/12 08:31:32","56.4933","97.4","215.33","469","60.0","8"
"04/10/12 08:36:33","56.5011","102.0","215.57","490","60.03","8"
"04/10/12 08:41:32","56.5091","106.7","214.95","508","60.0","8"
"04/10/12 08:46:32","56.5175","104.9","215.04","507","60.0","8"
"04/10/12 08:51:32","56.526","115.4","215.05","548","60.0","9"
"04/10/12 08:56:32","56.5352","119.2","215.52","561","60.07","9"
"04/10/12 09:01:33","56.5445","122.2","216.4","577","60.0","9"
"04/10/12 09:06:31","56.554","125.5","216.12","590","60.03","9"
"04/10/12 09:11:32","56.5629","118.3","216.17","559","60.03","9"
"04/10/12 09:16:33","56.5722","118.7","215.56","564","60.03","9"
"04/10/12 09:21:33","56.5816","127.5","215.98","601","60.03","9"
"04/10/12 09:26:33","56.5922","142.0","217.03","659","60.0","9"
"04/10/12 09:31:32","56.6036","147.5","216.71","683","60.03","10"
"04/10/12 09:36:32","56.6151","151.2","216.91","697","60.03","11"
"04/10/12 09:41:32","56.6238","64.6","214.87","363","60.0","10"
"04/10/12 09:46:32","56.6276","55.2","214.34","198","60.0","9"
"04/10/12 09:51:32","56.6317","43.6","214.86","410","60.03","9"
"04/10/12 09:56:33","56.6362","67.0","213.69","238","60.03","9"
"04/10/12 10:01:31","56.6405","64.3","213.72","115","60.0","8"
"04/10/12 10:06:33","56.6451","47.0","213.98","403","60.03","8"
"04/10/12 10:11:31","56.6496","62.2","214.65","323","60.03","8"
"04/10/12 10:16:32","56.6545","66.6","214.43","333","60.0","8"
"04/10/12 10:21:32","56.6595","66.3","213.77","337","60.0","7"
"04/10/12 10:26:32","56.665","76.9","214.62","380","60.03","7"
"04/10/12 10:31:32","56.6711","81.3","215.36","398","60.0","8"
"04/10/12 10:36:31","56.6769","72.0","214.93","358","60.03","8"
"04/10/12 10:41:32","56.6824","72.7","214.12","368","60.0","8"
"04/10/12 10:46:32","56.6881","74.9","214.56","374","60.03","8"
"04/10/12 10:51:32","56.694","75.2","215.4","371","60.03","8"
"04/10/12 10:56:33","56.6998","67.0","214.69","338","60.03","8"
"04/10/12 11:01:33","56.7049","66.6","215.38","333","60.0","8"
"04/10/12 11:06:32","56.7101","61.4","215.63","312","60.0","8"
"04/10/12 11:11:32","56.7144","58.5","215.27","341","60.0","8"
"04/10/12 11:16:33","56.7182","50.8","214.27","260","60.03","8"
"04/10/12 11:21:32","56.7215","53.5","214.93","110","60.03","8"
"04/10/12 11:26:33","56.7255","62.8","215.51","121","60.03","8"
"04/10/12 11:31:33","56.7301","62.0","213.97","321","60.03","8"
"04/10/12 11:36:32","56.7354","76.1","214.12","379","60.03","7"
"04/10/12 11:41:33","56.7435","124.8","215.81","585","60.03","8"
"04/10/12 11:46:32","56.754","161.2","216.33","740","60.03","9"
"04/10/12 11:51:32","56.7685","187.2","216.8","852","60.03","11"
"04/10/12 11:56:33","56.783","185.7","216.78","845","60.03","11"
"04/10/12 12:01:32","56.7965","193.7","217.62","878","60.03","12"
"04/10/12 12:06:33","56.8113","196.1","216.87","883","60.0","12"
"04/10/12 12:11:33","56.8253","160.1","216.63","735","60.03","13"
"04/10/12 12:16:32","56.84","196.7","217.52","888","60.03","13"
"04/10/12 12:21:32","56.8502","94.4","214.86","455","60.03","12"
"04/10/12 12:26:32","56.8608","126.2","215.34","598","60.03","12"
"04/10/12 12:31:32","56.8677","64.0","213.38","329","60.03","11"
"04/10/12 12:36:32","56.8727","67.7","214.91","342","60.03","9"
"04/10/12 12:41:33","56.8778","66.2","214.23","85","60.03","9"
"04/10/12 12:46:32","56.8812","46.3","213.76","167","60.03","9"
"04/10/12 12:51:31","56.8846","43.8","213.39","388","60.03","8"
"04/10/12 12:56:32","56.8885","59.1","214.29","344","60.03","8"
"04/10/12 13:01:32","56.8935","70.0","215.46","353","60.0","7"
"04/10/12 13:06:32","56.8994","79.1","215.42","391","60.03","7"
"04/10/12 13:11:32","56.9056","79.0","215.14","390","60.03","7"
"04/10/12 13:16:33","56.9133","105.7","215.95","502","60.0","8"
"04/10/12 13:21:32","56.9206","88.9","215.48","431","60.03","8"
"04/10/12 13:26:32","56.9275","90.1","215.46","437","60.0","8"
"04/10/12 13:31:32","56.937","137.7","218.19","637","60.03","9"
"04/10/12 13:36:31","56.9481","130.0","217.4","605","60.03","9"
"04/10/12 13:41:32","56.9563","104.4","216.33","500","60.07","9"
"04/10/12 13:46:33","56.9693","172.4","217.76","786","60.0","10"
"04/10/12 13:51:31","56.9828","174.6","218.35","793","60.07","11"
"04/10/12 13:56:33","56.9959","169.7","218.18","768","60.03","11"
"04/10/12 14:01:33","57.0045","97.2","216.11","467","60.03","11"
"04/10/12 14:06:32","57.0128","87.2","216.14","423","60.0","11"
"04/10/12 14:11:33","57.0224","118.9","215.97","562","60.03","11"
"04/10/12 14:16:33","57.031","97.5","216.37","469","60.0","11"
"04/10/12 14:21:32","57.0401","136.4","217.37","630","60.03","11"
"04/10/12 14:26:32","57.049","112.0","216.03","530","60.0","10"
"04/10/12 14:31:32","57.058","138.0","217.12","640","60.0","11"
"04/10/12 14:36:33","57.0675","120.6","217.2","567","60.0","11"
"04/10/12 14:41:33","57.0765","122.9","217.4","574","60.0","11"
"04/10/12 14:46:31","57.0864","112.1","216.91","530","60.03","11"
"04/10/12 14:51:32","57.0966","182.8","218.02","823","60.03","11"
"04/10/12 14:56:33","57.1104","195.9","218.14","884","60.03","12"
"04/10/12 15:01:32","57.1245","186.3","218.13","843","60.03","13"
"04/10/12 15:06:33","57.138","169.2","217.67","769","60.0","13"
"04/10/12 15:11:33","57.1508","162.0","217.05","745","60.03","13"
"04/10/12 15:16:32","57.1633","159.3","218.42","727","60.0","13"
"04/10/12 15:21:32","57.1755","156.4","218.29","714","60.0","13"
"04/10/12 15:26:32","57.1875","153.5","217.89","706","60.03","13"
"04/10/12 15:31:32","57.1994","143.2","217.73","658","60.03","13"
"04/10/12 15:36:33","57.2104","125.5","217.18","585","60.03","13"
"04/10/12 15:41:32","57.2212","139.8","217.91","644","60.03","13"
"04/10/12 15:46:33","57.2319","139.9","216.92","650","60.03","12"
"04/10/12 15:51:33","57.2427","136.2","217.0","634","60.03","12"
"04/10/12 15:56:32","57.2532","134.9","217.62","624","60.03","12"
"04/10/12 16:01:33","57.2634","126.5","217.86","585","60.03","11"
"04/10/12 16:06:31","57.2727","114.7","216.38","538","60.0","11"
"04/10/12 16:11:32","57.282","123.9","217.14","581","60.07","11"
"04/10/12 16:16:33","57.291","95.2","216.2","460","60.0","11"
"04/10/12 16:21:32","57.2995","112.3","216.26","531","60.0","11"
"04/10/12 16:26:32","57.308","108.1","216.94","510","60.0","11"
"04/10/12 16:31:33","57.3162","103.5","216.61","497","60.03","11"
"04/10/12 16:36:32","57.3239","93.9","216.75","450","60.03","11"
"04/10/12 16:41:33","57.3308","92.3","216.26","445","60.0","11"
"04/10/12 16:46:32","57.3376","89.2","216.14","434","60.03","11"
"04/10/12 16:51:33","57.3445","86.2","216.41","417","60.03","11"
"04/10/12 16:56:33","57.351","80.8","215.81","396","60.0","10"
"04/10/12 17:01:32","57.357","76.4","216.01","376","60.07","10"
"04/10/12 17:06:32","57.3627","71.2","215.77","352","60.07","10"
"04/10/12 17:11:32","57.3681","66.1","215.79","335","60.03","10"
"04/10/12 17:16:32","57.373","60.8","215.3","313","60.03","9"
"04/10/12 17:21:31","57.3774","44.7","215.3","360","60.0","9"
"04/10/12 17:26:32","57.3816","42.2","216.08","387","60.03","9"
"04/10/12 17:31:33","57.3853","39.7","214.85","335","60.03","9"
"04/10/12 17:36:31","57.3888","35.5","213.6","156","60.03","9"
"04/10/12 17:41:32","57.3918","42.4","214.99","109","60.0","9"
"04/10/12 17:46:33","57.3946","28.3","215.51","81","60.03","9"
"04/10/12 17:51:33","57.3969","31.8","214.77","241","60.03","9"
"04/10/12 17:56:32","57.3989","22.7","214.31","192","60.07","9"
"04/10/12 18:01:32","57.4006","25.9","214.25","91","60.0","9"
"04/10/12 18:06:33","57.402","16.5","214.64","3","60.03","9"
"04/10/12 18:11:32","57.4031","12.5","213.49","6","60.03","9"
"04/10/12 18:16:32","57.4041","15.9","214.04","10","60.03","9"
"04/10/12 18:21:33","57.4047","14.2","214.44","26","60.03","9"
"04/10/12 18:26:33","57.4053","10.5","214.04","0","60.03","9"
"04/10/12 18:31:32","57.4056","0.0","213.99","0","60.0","9"
"04/10/12 18:36:32","57.4058","0.0","214.69","0","60.03","7"
"04/11/12 06:46:33","57.4061","14.0","213.8","48","60.0","4"
"04/11/12 06:51:33","57.4067","12.8","212.92","2","60.03","4"
"04/11/12 06:56:32","57.4075","15.3","212.15","0","60.0","4"
"04/11/12 07:01:32","57.4085","10.9","212.29","26","60.0","5"
"04/11/12 07:06:32","57.4098","25.3","212.16","173","60.03","5"
"04/11/12 07:11:32","57.4112","23.3","213.4","22","60.03","6"
"04/11/12 07:16:33","57.413","17.1","213.4","26","60.03","6"
"04/11/12 07:21:33","57.4151","33.3","214.01","194","60.03","6"
"04/11/12 07:26:34","57.4176","39.3","213.24","236","60.03","6"
"04/11/12 07:31:32","57.4204","44.9","213.59","330","60.03","6"
"04/11/12 07:36:33","57.4236","50.7","214.28","182","60.03","6"
"04/11/12 07:41:33","57.4272","55.8","214.35","110","60.03","6"
"04/11/12 07:46:34","57.4312","57.5","214.33","410","60.03","7"
"04/11/12 07:51:32","57.4355","46.5","214.39","435","60.03","7"
"04/11/12 07:56:32","57.4404","62.6","214.4","317","60.0","7"
"04/11/12 08:01:33","57.4456","72.8","214.92","362","60.03","8"
"04/11/12 08:06:32","57.4514","82.0","214.99","405","60.03","8"
"04/11/12 08:11:32","57.4577","63.3","214.55","326","60.03","8"
"04/11/12 08:16:32","57.4634","98.7","215.94","472","60.03","9"
"04/11/12 08:21:33","57.4705","106.6","215.39","508","60.0","9"
"04/11/12 08:26:33","57.4789","110.9","215.78","527","60.03","9"
"04/11/12 08:31:33","57.4839","35.3","213.95","196","60.03","9"
"04/11/12 08:36:32","57.4872","48.9","214.14","365","60.03","9"
"04/11/12 08:41:33","57.4903","48.8","213.96","205","60.03","9"
"04/11/12 08:46:33","57.4936","36.3","214.07","107","60.0","9"
"04/11/12 08:51:33","57.4964","32.4","214.12","259","60.03","9"
"04/11/12 08:56:33","57.4984","33.4","214.71","130","60.03","9"
"04/11/12 09:01:33","57.5005","37.3","213.72","81","60.03","9"
"04/11/12 09:06:32","57.5037","45.6","215.1","142","60.0","9"
"04/11/12 09:11:32","57.5058","22.4","214.32","217","60.03","9"
"04/11/12 09:16:32","57.5077","22.1","214.18","236","60.03","9"
"04/11/12 09:21:33","57.5102","41.0","214.28","99","60.0","9"
"04/11/12 09:26:33","57.5134","58.1","214.44","333","60.03","9"
"04/11/12 09:31:33","57.5174","49.2","214.82","333","60.03","9"
"04/11/12 09:36:33","57.5206","49.5","215.12","113","60.0","9"
"04/11/12 09:41:33","57.525","64.9","215.77","324","60.03","9"
"04/11/12 09:46:33","57.5295","53.3","213.53","112","60.03","9"
"04/11/12 09:51:33","57.5332","48.7","213.22","310","60.03","9"
"04/11/12 09:56:32","57.5367","47.4","214.69","316","60.03","9"
"04/11/12 10:01:32","57.5408","50.3","214.64","226","60.0","9"
"04/11/12 10:06:33","57.5448","65.1","213.49","357","60.03","9"
"04/11/12 10:11:33","57.5489","45.1","214.25","340","60.03","9"
"04/11/12 10:16:32","57.5535","71.9","214.88","360","60.03","10"
"04/11/12 10:21:32","57.5579","58.7","214.16","209","60.0","10"
"04/11/12 10:26:33","57.563","68.6","215.4","348","60.03","10"
"04/11/12 10:31:32","57.5678","41.9","214.96","371","60.03","11"
"04/11/12 10:36:32","57.5721","60.0","215.78","427","60.03","11"
"04/11/12 10:41:33","57.577","61.6","215.69","318","60.0","11"
"04/11/12 10:46:34","57.5816","58.6","214.79","399","60.03","11"
"04/11/12 10:51:32","57.5873","100.1","216.43","477","60.0","11"
"04/11/12 10:56:33","57.5933","72.3","215.75","358","60.07","11"
"04/11/12 11:01:33","57.5983","61.9","215.74","312","60.03","11"
"04/11/12 11:06:32","57.6041","73.7","215.85","362","60.03","11"
"04/11/12 11:11:33","57.6112","95.6","217.36","457","60.03","11"
"04/11/12 11:16:33","57.6173","71.9","216.16","357","60.03","11"
"04/11/12 11:21:33","57.6234","87.3","216.63","426","60.03","11"
"04/11/12 11:26:33","57.6311","90.5","216.15","438","60.07","12"
"04/11/12 11:31:33","57.6384","134.2","217.2","621","60.03","13"
"04/11/12 11:36:33","57.6461","71.2","216.26","354","60.0","12"
"04/11/12 11:41:32","57.6513","68.9","215.9","345","60.03","12"
"04/11/12 11:46:33","57.658","94.1","217.17","453","60.0","12"
"04/11/12 11:51:33","57.665","87.8","217.52","428","60.03","12"
"04/11/12 11:56:34","57.6717","74.7","216.04","371","60.03","12"
"04/11/12 12:01:34","57.6779","97.3","216.1","470","60.03","12"
"04/11/12 12:06:32","57.6845","80.1","216.02","391","60.03","12"
"04/11/12 12:11:33","57.6902","82.6","216.32","405","60.0","11"
"04/11/12 12:16:33","57.6976","97.6","216.28","468","60.0","12"
"04/11/12 12:21:34","57.7055","85.9","216.17","417","60.03","12"
"04/11/12 12:26:32","57.7124","89.9","215.51","440","60.07","12"
"04/11/12 12:31:32","57.7179","71.3","215.77","356","60.0","12"
"04/11/12 12:36:33","57.7253","73.2","215.7","360","60.03","12"
"04/11/12 12:41:32","57.7336","98.7","215.5","474","60.03","13"
"04/11/12 12:46:33","57.7395","81.2","216.05","401","60.03","13"
"04/11/12 12:51:34","57.7469","92.8","215.26","451","60.03","12"
"04/11/12 12:56:34","57.7535","82.3","216.21","403","60.03","12"
"04/11/12 13:01:33","57.7594","77.1","214.67","383","60.0","12"
"04/11/12 13:06:32","57.7654","85.1","216.09","415","60.0","12"
"04/11/12 13:11:33","57.7715","73.5","215.5","366","60.03","12"
"04/11/12 13:16:33","57.777","69.5","215.06","350","60.0","12"
"04/11/12 13:21:32","57.7829","76.2","215.65","381","60.03","11"
"04/11/12 13:26:33","57.7886","68.4","215.56","348","60.03","11"
"04/11/12 13:31:34","57.795","86.2","216.13","421","60.03","11"
"04/11/12 13:36:33","57.8024","123.4","216.88","578","60.0","12"
"04/11/12 13:41:33","57.8097","81.2","216.52","396","60.03","13"
"04/11/12 13:46:32","57.8159","75.6","216.11","372","60.03","12"
"04/11/12 13:51:33","57.8224","81.7","215.99","402","60.03","12"
"04/11/12 13:56:33","57.8283","72.6","215.95","360","60.03","12"
"04/11/12 14:01:33","57.8337","68.4","214.9","346","60.0","11"
"04/11/12 14:06:33","57.8394","76.6","216.14","377","60.03","12"
"04/11/12 14:11:34","57.8446","45.3","215.62","206","60.0","12"
"04/11/12 14:16:33","57.8485","63.1","215.19","340","60.0","12"
"04/11/12 14:21:33","57.8523","48.6","215.72","205","60.03","11"
"04/11/12 14:26:32","57.8563","68.5","216.61","343","60.0","11"
"04/11/12 14:31:33","57.8617","69.5","215.5","345","60.03","11"
"04/11/12 14:36:32","57.8672","67.1","215.53","339","60.0","11"
"04/11/12 14:41:33","57.872","60.4","215.62","315","60.03","11"
"04/11/12 14:46:33","57.8771","70.2","215.59","347","60.0","11"
"04/11/12 14:51:32","57.8825","68.9","215.58","343","60.03","11"
"04/11/12 14:56:34","57.8877","65.5","215.31","327","60.0","11"
"04/11/12 15:01:32","57.8928","68.3","215.5","341","60.0","11"
"04/11/12 15:06:33","57.8984","68.9","215.62","348","60.0","11"
"04/11/12 15:11:32","57.9043","78.1","216.23","384","60.03","11"
"04/11/12 15:16:33","57.9104","77.7","215.96","386","60.03","11"
"04/11/12 15:21:32","57.9162","81.8","215.84","404","60.03","11"
"04/11/12 15:26:32","57.9224","72.4","216.07","364","60.07","11"
"04/11/12 15:31:33","57.9293","82.0","215.89","404","60.0","12"
"04/11/12 15:36:33","57.9349","61.3","215.85","315","60.03","11"
"04/11/12 15:41:32","57.9415","75.6","216.33","375","60.0","12"
"04/11/12 15:46:33","57.9506","175.9","218.21","795","60.07","13"
"04/11/12 15:51:32","57.9572","62.3","215.77","313","60.0","12"
"04/11/12 15:56:33","57.9615","70.0","215.25","385","60.07","12"
"04/11/12 16:01:32","57.97","142.3","217.46","657","60.03","13"
"04/11/12 16:06:33","57.9778","115.5","216.55","543","60.0","13"
"04/11/12 16:11:33","57.9875","118.9","216.34","562","60.0","13"
"04/11/12 16:16:34","57.996","113.8","216.12","535","60.03","13"
"04/11/12 16:21:32","58.0046","108.8","216.2","518","60.0","14"
"04/11/12 16:26:32","58.0129","105.6","216.61","497","60.03","14"
"04/11/12 16:31:32","58.0209","101.0","215.66","486","60.03","14"
"04/11/12 16:36:34","58.0287","97.0","215.5","466","60.0","14"
"04/11/12 16:41:33","58.0361","92.2","215.01","449","60.03","15"
"04/11/12 16:46:34","58.0432","88.3","215.31","432","60.03","14"
"04/11/12 16:51:33","58.0498","83.9","214.95","415","60.03","14"
"04/11/12 16:56:33","58.0562","78.8","214.72","388","60.03","15"
"04/11/12 17:01:33","58.0621","74.0","215.01","371","60.07","15"
"04/11/12 17:06:33","58.0678","69.5","214.67","352","60.03","15"
"04/11/12 17:11:33","58.073","65.3","214.7","330","60.03","14"
"04/11/12 17:16:32","58.0778","72.5","214.83","114","60.03","14"
"04/11/12 17:21:33","58.0817","56.1","214.55","133","60.03","14"
"04/11/12 17:26:33","58.0856","61.9","214.15","335","60.0","14"
"04/11/12 17:31:33","58.0894","45.7","214.37","312","60.03","14"
"04/11/12 17:36:34","58.0928","46.2","213.68","269","60.03","14"
"04/11/12 17:41:32","58.0958","41.2","213.56","159","60.03","13"
"04/11/12 17:46:34","58.0985","37.2","213.95","244","60.0","13"
"04/11/12 17:51:33","58.1009","32.5","214.19","247","60.0","13"
"04/11/12 17:56:33","58.1029","33.3","214.35","280","60.03","13"
"04/11/12 18:01:32","58.1047","13.5","214.39","39","60.03","13"
"04/11/12 18:06:32","58.1061","22.9","213.76","274","60.03","12"
"04/11/12 18:11:34","58.1073","12.2","213.91","151","60.0","12"
"04/11/12 18:16:33","58.1082","4.5","214.23","129","60.03","12"
"04/11/12 18:21:32","58.1089","4.0","214.07","0","60.07","11"
"04/11/12 18:26:33","58.1095","0.0","213.92","0","60.03","11"
"04/11/12 18:31:33","58.1099","0.4","213.51","244","60.0","11"
"04/11/12 18:36:34","58.1103","3.1","213.46","0","60.03","11"
"04/12/12 06:51:35","58.1108","11.6","214.31","15","60.03","1"
"04/12/12 06:56:32","58.1115","13.8","214.12","206","60.03","2"
"04/12/12 07:01:32","58.1125","12.2","213.44","24","60.03","2"
"04/12/12 07:06:34","58.1137","13.3","213.51","29","60.03","3"
"04/12/12 07:11:33","58.1152","26.4","213.85","37","60.0","3"
"04/12/12 07:16:34","58.1169","23.2","214.04","172","60.03","4"
"04/12/12 07:21:32","58.119","25.3","213.71","134","60.03","4"
"04/12/12 07:26:33","58.1214","37.3","213.96","295","60.07","5"
"04/12/12 07:31:33","58.1243","47.7","214.47","242","60.0","5"
"04/12/12 07:36:33","58.1277","39.2","214.43","369","60.07","6"
"04/12/12 07:41:33","58.1315","51.8","214.15","372","60.03","6"
"04/12/12 07:46:33","58.1356","52.2","213.31","132","60.03","6"
"04/12/12 07:51:33","58.14","72.1","214.8","405","60.03","6"
"04/12/12 07:56:34","58.1449","64.1","215.59","329","60.0","7"